User: anonymous   Login
Location: Santa Maria di Sala
(45.5070°N, 12.0300°E)
Time: 22:26:25
(UTC+01:00)
Language:

LilacSat-2 - Orbit

View from above orbital plane
View from above orbital plane
View from above satellite
View from above satellite

Ground track
Ground track

The orbit data is extracted from the following two-line orbital elements,

1 40908U 15049K   24052.46565686  .00008553  00000-0  35765-3 0  9999
2 40908  97.5281  60.5424 0014304  46.5371 313.7053 15.23753428465708
Epoch (UTC): 21 February 2024 11:10:32
Eccentricity: 0.0014304
inclination: 97.5281°
perigee height: 485 km
apogee height: 504 km
right ascension of ascending node: 60.5424°
argument of perigee: 46.5371°
revolutions per day: 15.23753428
mean anomaly at epoch: 313.7053°
orbit number at epoch: 46570

The dashed part of the orbit path shows where the satellite is in the earth's shadow,  

DLR